Location: ??????
(38.0677°N, 22.9870°E)
Time: 11:10:47
(UTC+00:00)

Cosmos 2242 Rocket - Pass Details

Date: 23 May 2024
Orbit: 617 x 647 km, 82.5° (Epoch: 19 June)

Event Time Altitude Azimuth Distance (km) Brightness Sun altitude
Exits shadow 00:53:32 59° 252° (WSW) 727 3.6 -21.7°
Maximum altitude 00:53:55 62° 279° (W) 709 3.6 -21.6°
Drops below altitude 10° 00:58:21 10° 0° (N) 2,019 6.9 -21.1°
Sets 01:00:38 0° 4° (N) 2,937 7.9 -20.8°
